Fulton Cnty AP, Rochester, IN, IN

6:40 PM EST on November 14, 2019 (GMT -0500)
Fulton County

Weather History for KRCR - October, 2019

Change the Weather History Date:

Monday, October 21, 2019

  Actual Average Record
Temperature  
Mean Temperature 58 °F -  
Max Temperature 64 °F 58 °F 78 °F (2015)
Min Temperature 51 °F 36 °F 35 °F (2018)
Degree Days  
Heating Degree Days 8    
Growing Degree Days 8 (Base 50)    
Moisture  
Dew Point 53 °F    
Average Humidity 80    
Maximum Humidity 94    
Minimum Humidity 59    
Precipitation  
Precipitation 0.31 in - - ()
Sea Level Pressure  
Sea Level Pressure 29.70 in    
Wind  
Wind Speed 9 mph ()    
Max Wind Speed 32 mph    
Max Gust Speed 44 mph    
Visibility 9.1 miles    
Events Rain    
Averages and records for this station are not official NWS values.
T = Trace of Precipitation, MM = Missing Value Source: Averaged Metar Reports

Daily Weather History Graph

Daily Weather History Graph

Search for Another Location

Airport or City:

Astronomy

Oct. 21, 2019 Rise Set
Actual Time 8:02 AM EDT 6:55 PM EDT
Civil Twilight 7:34 AM EDT 7:23 PM EDT
Nautical Twilight 7:02 AM EDT 7:55 PM EDT
Astronomical Twilight 6:30 AM EDT 8:27 PM EDT
Moon 12:03 AM EDT (10/21) 3:22 PM EDT (10/21)
Length of Visible Light 11h 48m
Length of Day
10h 52m
Waning Gibbous, 48% of the Moon is Illuminated
Oct 21
Waning Gibbous
Oct 27
New
Nov 4
First Quarter
Nov 12
Full
Nov 19
Last Quarter

Hourly Weather History & Observations

Time (EDT) Temp. Dew Point Humidity Pressure Visibility Wind Dir Wind Speed Gust Speed Precip Events Conditions
12:15 AM 51.8 °F 48.2 °F 88% 29.92 in 10.0 mi Calm Calm - N/A   Overcast
12:35 AM 51.8 °F 50.0 °F 94% 29.91 in 10.0 mi Calm Calm - N/A   Overcast
12:55 AM 51.8 °F 50.0 °F 94% 29.90 in 10.0 mi Calm Calm - N/A   Overcast
1:15 AM 51.8 °F 50.0 °F 94% 29.90 in 10.0 mi ENE 3.5 mph - N/A   Overcast
1:35 AM 53.6 °F 50.0 °F 88% 29.89 in 7.0 mi Calm Calm - N/A   Overcast
1:55 AM 57.2 °F 50.0 °F 77% 29.88 in 10.0 mi ESE 6.9 mph - N/A   Overcast
2:15 AM 59.0 °F 48.2 °F 67% 29.87 in 10.0 mi ESE 9.2 mph - N/A   Overcast
2:35 AM 59.0 °F 48.2 °F 67% 29.85 in 10.0 mi ESE 8.1 mph 16.1 mph N/A   Overcast
2:55 AM 60.8 °F 46.4 °F 59% 29.85 in 10.0 mi ESE 9.2 mph - N/A   Overcast
3:15 AM 60.8 °F 46.4 °F 59% 29.87 in 10.0 mi ESE 10.4 mph - N/A   Overcast
3:35 AM 59.0 °F 46.4 °F 63% 29.86 in 10.0 mi ESE 6.9 mph - N/A   Overcast
3:55 AM 59.0 °F 46.4 °F 63% 29.86 in 10.0 mi ESE 8.1 mph - N/A   Overcast
4:15 AM 59.0 °F 46.4 °F 63% 29.86 in 10.0 mi ESE 8.1 mph - N/A   Overcast
4:35 AM 59.0 °F 46.4 °F 63% 29.85 in 10.0 mi ESE 8.1 mph - N/A   Overcast
4:55 AM 59.0 °F 46.4 °F 63% 29.85 in 10.0 mi ESE 5.8 mph - N/A   Overcast
5:15 AM 59.0 °F 46.4 °F 63% 29.85 in 10.0 mi ESE 9.2 mph - N/A   Overcast
5:35 AM 59.0 °F 46.4 °F 63% 29.82 in 10.0 mi ESE 8.1 mph - N/A   Overcast
5:55 AM 59.0 °F 48.2 °F 67% 29.82 in 10.0 mi ESE 8.1 mph - N/A   Mostly Cloudy
6:15 AM 59.0 °F 48.2 °F 67% 29.81 in 10.0 mi ESE 6.9 mph - N/A   Mostly Cloudy
6:35 AM 59.0 °F 50.0 °F 72% 29.80 in 10.0 mi ESE 9.2 mph - N/A   Mostly Cloudy
6:55 AM 57.2 °F 50.0 °F 77% 29.80 in 10.0 mi SE 9.2 mph - N/A   Mostly Cloudy
7:15 AM 57.2 °F 50.0 °F 77% 29.79 in 10.0 mi ESE 9.2 mph - N/A   Overcast
7:35 AM 57.2 °F 50.0 °F 77% 29.78 in 10.0 mi ESE 11.5 mph - N/A   Overcast
7:55 AM 57.2 °F 50.0 °F 77% 29.77 in 10.0 mi ESE 10.4 mph - N/A   Overcast
8:15 AM 57.2 °F 51.8 °F 82% 29.76 in 10.0 mi ESE 10.4 mph - N/A   Mostly Cloudy
8:35 AM 57.2 °F 51.8 °F 82% 29.76 in 10.0 mi ESE 10.4 mph 16.1 mph N/A   Mostly Cloudy
8:55 AM 57.2 °F 51.8 °F 82% 29.74 in 10.0 mi ESE 11.5 mph - N/A   Mostly Cloudy
9:15 AM 59.0 °F 51.8 °F 77% 29.73 in 10.0 mi ESE 13.8 mph 20.7 mph N/A   Scattered Clouds
9:35 AM 59.0 °F 53.6 °F 82% 29.72 in 10.0 mi SE 15.0 mph 20.7 mph N/A   Clear
9:55 AM 59.0 °F 53.6 °F 82% 29.71 in 10.0 mi SE 18.4 mph 25.3 mph N/A   Scattered Clouds
10:15 AM 59.0 °F 53.6 °F 82% 29.72 in 7.0 mi SSE 15.0 mph 25.3 mph N/A Rain Light Rain
10:35 AM 59.0 °F 55.4 °F 88% 29.70 in 5.0 mi SE 16.1 mph 23.0 mph 0.01 in Rain Light Rain
10:55 AM 59.0 °F 55.4 °F 88% 29.70 in 4.0 mi SE 11.5 mph 21.9 mph 0.03 in Rain Rain
11:15 AM 59.0 °F 55.4 °F 88% 29.68 in 5.0 mi SE 15.0 mph 26.5 mph 0.02 in Rain Light Rain
11:35 AM 59.0 °F 55.4 °F 88% 29.66 in 5.0 mi SE 19.6 mph 27.6 mph 0.04 in Rain Light Rain
11:55 AM 60.8 °F 57.2 °F 88% 29.65 in 5.0 mi SE 20.7 mph 27.6 mph 0.06 in Rain Rain
12:15 PM 60.8 °F 57.2 °F 88% 29.64 in 5.0 mi SE 21.9 mph 29.9 mph 0.03 in Rain Light Rain
12:35 PM 60.8 °F 57.2 °F 88% 29.61 in 5.0 mi SE 24.2 mph 32.2 mph 0.05 in Rain Light Rain
12:55 PM 60.8 °F 59.0 °F 94% 29.55 in 4.0 mi SE 28.8 mph 43.7 mph 0.06 in Rain Light Rain
1:15 PM 60.8 °F 59.0 °F 94% 29.54 in 7.0 mi SE 32.2 mph 42.6 mph N/A Rain Light Rain
1:35 PM 60.8 °F 59.0 °F 94% 29.56 in 10.0 mi SE 24.2 mph 39.1 mph N/A   Overcast
1:55 PM 60.8 °F 59.0 °F 94% 29.54 in 10.0 mi SSE 19.6 mph 33.4 mph N/A   Overcast
2:15 PM 62.6 °F 59.0 °F 88% 29.57 in 10.0 mi South 15.0 mph 34.5 mph N/A   Overcast
2:35 PM 62.6 °F 59.0 °F 88% 29.60 in 10.0 mi SSE 19.6 mph 29.9 mph N/A   Overcast
2:55 PM 62.6 °F 59.0 °F 88% 29.58 in 10.0 mi SSE 17.3 mph 29.9 mph N/A   Overcast
3:15 PM 62.6 °F 59.0 °F 88% 29.60 in 10.0 mi South 15.0 mph 24.2 mph N/A   Overcast
3:35 PM 62.6 °F 59.0 °F 88% 29.58 in 7.0 mi South 11.5 mph 20.7 mph N/A Rain Light Rain
4:15 PM 62.6 °F 60.8 °F 94% 29.57 in 4.0 mi South 10.4 mph 19.6 mph 0.09 in Rain Light Rain
4:35 PM 64.4 °F 59.0 °F 83% 29.58 in 10.0 mi South 12.7 mph 18.4 mph 0.09 in   Scattered Clouds
4:55 PM 64.4 °F 60.8 °F 88% 29.57 in 10.0 mi South 10.4 mph 18.4 mph 0.09 in   Scattered Clouds
5:15 PM 64.4 °F 59.0 °F 83% 29.57 in 10.0 mi South 11.5 mph 19.6 mph N/A   Scattered Clouds
5:35 PM 64.4 °F 59.0 °F 83% 29.57 in 10.0 mi South 10.4 mph 16.1 mph N/A   Scattered Clouds
5:55 PM 64.4 °F 59.0 °F 83% 29.56 in 10.0 mi South 9.2 mph 16.1 mph N/A   Light Drizzle
6:15 PM 64.4 °F 59.0 °F 83% 29.57 in 10.0 mi SSW 12.7 mph 19.6 mph 0.01 in Rain Light Rain
6:35 PM 62.6 °F 59.0 °F 88% 29.57 in 10.0 mi SSW 13.8 mph 19.6 mph 0.01 in   Scattered Clouds
6:55 PM 62.6 °F 59.0 °F 88% 29.57 in 10.0 mi SW 11.5 mph 23.0 mph 0.01 in   Scattered Clouds
7:15 PM 62.6 °F 57.2 °F 82% 29.58 in 10.0 mi SSW 12.7 mph 21.9 mph N/A   Scattered Clouds
7:35 PM 62.6 °F 57.2 °F 82% 29.59 in 10.0 mi SSW 15.0 mph 21.9 mph N/A   Scattered Clouds
7:55 PM 62.6 °F 57.2 °F 82% 29.60 in 10.0 mi SSW 11.5 mph 23.0 mph N/A   Clear
8:15 PM 62.6 °F 57.2 °F 82% 29.61 in 10.0 mi SSW 16.1 mph 21.9 mph N/A   Clear
8:35 PM 62.6 °F 57.2 °F 82% 29.61 in 10.0 mi SSW 11.5 mph 18.4 mph N/A   Clear
8:55 PM 62.6 °F 57.2 °F 82% 29.62 in 10.0 mi SSW 8.1 mph - N/A   Scattered Clouds
9:15 PM 60.8 °F 55.4 °F 82% 29.61 in 10.0 mi South 8.1 mph - N/A   Scattered Clouds
9:35 PM 62.6 °F 55.4 °F 77% 29.61 in 10.0 mi SSW 16.1 mph 19.6 mph N/A   Scattered Clouds
9:55 PM 59.0 °F 51.8 °F 77% 29.64 in 7.0 mi WSW 9.2 mph - 0.05 in Rain Light Rain
10:15 PM 59.0 °F 50.0 °F 72% 29.66 in 10.0 mi WSW 12.7 mph 23.0 mph N/A   Scattered Clouds
10:35 PM 57.2 °F 50.0 °F 77% 29.67 in 10.0 mi West 6.9 mph - N/A Rain Light Rain
10:55 PM 55.4 °F 50.0 °F 82% 29.68 in 10.0 mi West 9.2 mph - 0.01 in   Light Drizzle
11:15 PM 55.4 °F 48.2 °F 77% 29.68 in 10.0 mi WSW 5.8 mph - N/A   Scattered Clouds
11:35 PM 53.6 °F 44.6 °F 72% 29.68 in 10.0 mi WSW 5.8 mph - N/A   Clear
11:55 PM 53.6 °F 44.6 °F 72% 29.68 in 10.0 mi SW 6.9 mph - N/A   Scattered Clouds